Asheville, NC

12:36 PM EDT on May 26, 2017 (GMT -0400)
Asheville Regional

Weather History for KAVL - November, 2008

Change the Weather History Date:

Monday, November 17, 2008

  Actual Average Record
Temperature  
Mean Temperature 39 °F 47 °F  
Max Temperature 51 °F 58 °F 78 °F (1955)
Min Temperature 27 °F 35 °F 15 °F (1933)
Degree Days  
Heating Degree Days 26 18  
Month to date heating degree days 279 268  
Since 1 July heating degree days 645 603  
Cooling Degree Days 0 0  
Month to date cooling degree days 0 0  
Year to date cooling degree days 875 862  
Moisture  
Dew Point 24 °F    
Average Humidity 59    
Maximum Humidity 85    
Minimum Humidity 33    
Precipitation  
Precipitation 0.00 in 0.13 in 1.50 in (1927)
Month to date precipitation 1.09 1.89  
Year to date precipitation 30.37 40.22  
Snow  
Snow 0.00 in 0.00 in 0.10 in (1923)
Month to date snowfall 0.0 0.0  
Since 1 July snowfall T 0.0  
Since 1 September snowfall T 0.0  
Snow Depth -    
Sea Level Pressure  
Sea Level Pressure 30.14 in    
Wind  
Wind Speed 9 mph (NNW)    
Max Wind Speed 23 mph    
Max Gust Speed 32 mph    
Visibility 10 miles    
Events      
T = Trace of Precipitation, MM = Missing Value Source: NWS Daily Summary

Daily Weather History Graph

Daily Weather History Graph

Search for Another Location

Airport or City:

Trip Planner

Search our weather history database for the weather conditions in past years. The results will help you decide how hot, cold, wet, or windy it might be!

Date:

Astronomy

Nov. 17, 2008 Rise Set
Actual Time 7:07 AM EST 5:22 PM EST
Civil Twilight 6:40 AM EST 5:49 PM EST
Nautical Twilight 6:09 AM EST 6:20 PM EST
Astronomical Twilight 5:39 AM EST 6:50 PM EST
Moon 10:03 PM EST (11/17) 11:46 AM EST (11/17)
Length of Visible Light 11h 08m
Length of Day
10h 14m
Waning Gibbous, 74% of the Moon is Illuminated
Nov 17
Waning Gibbous
Nov 19
Last Quarter
Nov 27
New
Dec 5
First Quarter
Dec 12
Full

Hourly Weather History & Observations

Time (EST) Temp. Windchill Dew Point Humidity Pressure Visibility Wind Dir Wind Speed Gust Speed Precip Events Conditions
12:54 AM 30.9 °F 20.7 °F 24.1 °F 76% 30.16 in 10.0 mi NNW 13.8 mph - N/A   Clear
1:54 AM 30.9 °F 20.7 °F 24.1 °F 76% 30.16 in 10.0 mi NNW 13.8 mph - N/A   Clear
2:54 AM 30.9 °F 21.7 °F 23.0 °F 72% 30.15 in 10.0 mi NNW 11.5 mph - N/A   Clear
3:54 AM 30.9 °F 23.5 °F 23.0 °F 72% 30.15 in 10.0 mi North 8.1 mph - N/A   Clear
4:54 AM 28.9 °F - 24.1 °F 82% 30.17 in 10.0 mi Calm Calm - N/A   Clear
5:54 AM 30.0 °F - 24.1 °F 79% 30.18 in 10.0 mi Calm Calm - N/A   Clear
6:54 AM 28.0 °F - 24.1 °F 85% 30.18 in 10.0 mi Calm Calm - N/A   Clear
7:54 AM 28.0 °F 22.8 °F 25.0 °F 88% 30.21 in 10.0 mi NNW 4.6 mph - N/A   Mostly Cloudy
8:54 AM 30.9 °F - 26.1 °F 82% 30.19 in 10.0 mi Calm Calm - N/A   Clear
9:54 AM 35.1 °F - 26.1 °F 70% 30.18 in 10.0 mi Calm Calm - N/A   Clear
10:54 AM 39.0 °F 32.8 °F 27.0 °F 62% 30.19 in 10.0 mi NNW 9.2 mph - N/A   Clear
11:54 AM 44.1 °F 39.5 °F 28.9 °F 55% 30.13 in 10.0 mi NNW 8.1 mph - N/A   Clear
12:54 PM 48.0 °F - 28.9 °F 48% 30.09 in 10.0 mi NNW 12.7 mph - N/A   Clear
1:54 PM 50.0 °F - 28.9 °F 44% 30.06 in 10.0 mi North 9.2 mph - N/A   Clear
2:54 PM 50.0 °F - 23.0 °F 35% 30.05 in 10.0 mi North 12.7 mph 26.5 mph N/A   Clear
3:54 PM 46.9 °F - 24.1 °F 41% 30.06 in 10.0 mi North 13.8 mph 28.8 mph N/A   Clear
4:54 PM 44.1 °F 36.8 °F 21.9 °F 42% 30.08 in 10.0 mi North 16.1 mph 25.3 mph N/A   Clear
5:54 PM 41.0 °F 35.2 °F 24.1 °F 51% 30.10 in 10.0 mi North 9.2 mph 17.3 mph N/A   Clear
6:54 PM 39.0 °F 32.8 °F 26.1 °F 60% 30.12 in 10.0 mi NNW 9.2 mph - N/A   Mostly Cloudy
7:54 PM 37.9 °F 29.6 °F 25.0 °F 60% 30.15 in 10.0 mi North 13.8 mph 24.2 mph N/A   Overcast
8:54 PM 36.0 °F 28.0 °F 23.0 °F 59% 30.15 in 10.0 mi North 11.5 mph 21.9 mph N/A   Scattered Clouds
9:54 PM 36.0 °F 29.0 °F 21.9 °F 57% 30.15 in 10.0 mi NNW 9.2 mph 18.4 mph N/A   Overcast
10:54 PM 36.0 °F 29.0 °F 19.9 °F 52% 30.14 in 10.0 mi North 9.2 mph 20.7 mph N/A   Overcast
11:54 PM 34.0 °F 26.0 °F 21.0 °F 59% 30.16 in 10.0 mi North 10.4 mph 19.6 mph N/A   Overcast